[[{"header":{"parameterUnit":"m.s-1","parameterCategory":1,"la1":30.2991,"la2":30.254,"lo1":-89.0895,"lo2":-89.0444,"dy":0.0017,"dx":0.0017,"nx":28,"ny":28,"refTime":"2023-10-16T09:00:00:Z","depth":0,"parameterNumber":2,"parameterNumberName":"U-component_of_WINDS"},"data":[0,0,0,0,0,0,0,0,0,0,0,0,0,0,0,0,0,0,0,0,0,0,0,0,0,0,0,0,0,0,0,0,0,0,0,0,0,0,0,0,0,0,0,0,0,0,0,0,0,0,0,0,0,0,0,0,0,0,0.8588,0.8587,0,0.8495,0.8494,0.8493,0.8487,0.8488,0.8489,0.849,0.839,0.8386,0.8383,0,0,0,0,0,0,0,0,0,0,0,0,0,0.8756,0.8753,0.8589,0.8587,0.8586,0.8495,0.8494,0.8493,0.8487,0.8488,0.8489,0.8491,0.8391,0.8387,0.8382,0,0,0,0,0,0,0,0,0,0,0,0,0,0.8675,0.8752,0.8589,0.8572,0.857,0.8495,0.8494,0.8492,0.8487,0.8488,0.849,0.8491,0.8392,0.8387,0.8382,0.8315,0,0,0.8365,0.8362,0,0,0,0,0,0,0,0,0.868,0.8669,0.8576,0.8573,0.8571,0.8504,0.8516,0.8433,0.8486,0.8518,0.849,0.8492,0.8426,0.8418,0.8397,0.8311,0.8306,0.8364,0.8361,0.8359,0.8357,0,0,0,0,0,0,0,0.8685,0.8673,0.8551,0.8575,0.8571,0.8568,0.8558,0.85,0.8464,0.8515,0.8515,0.8504,0.8425,0.8402,0.8394,0.8305,0.8364,0.8359,0.8356,0.8354,0.8156,0.8154,0,0,0,0,0,0,0.8695,0.8678,0.8554,0.8549,0.863,0.8564,0.8553,0.8524,0.8465,0.8457,0.8503,0.8504,0.8411,0.8401,0.8391,0.8306,0.8359,0.8353,0.835,0.8158,0.8156,0.8153,0,0,0,0,0,0,0.8698,0.8684,0.8558,0.8613,0.8597,0.8559,0.8527,0.8521,0.8498,0.8455,0.8448,0.8486,0.8412,0.8399,0.8334,0.8303,0.8351,0.8346,0.816,0.8157,0.8155,0.8139,0,0,0,0,0,0,0.8703,0.8685,0.8661,0.8612,0.8594,0.8504,0.8525,0.8518,0.8489,0.849,0.8438,0.8431,0.8412,0.8342,0.8328,0.8296,0.8342,0.8163,0.8159,0.8155,0.8142,0.8136,0.8131,0,0,0,0,0,0.8709,0.866,0.866,0.8645,0.8563,0.8502,0.8492,0.8472,0.8487,0.8461,0.8433,0.8432,0.831,0.8335,0.832,0.8286,0.8165,0.816,0.8156,0.8145,0.8137,0.8131,0,0,0,0,0,0,0.8705,0.8654,0.8653,0.8587,0.8549,0.8502,0.8469,0.8465,0.8422,0.8424,0.84,0.8389,0.8323,0.8299,0.8329,0.8217,0.8238,0.8231,0.8235,0.8228,0.8222,0.8228,0.8337,0,0,0,0,0,0.8697,0.8653,0.861,0.8556,0.8538,0.8506,0.8479,0.8468,0.8427,0.8411,0.8378,0.8337,0.8289,0.8257,0.8211,0.814,0.8126,0.8108,0.8103,0.8098,0.8091,0.8047,0.8038,0.8139,0.8139,0.8139,0,0,0.8678,0.8645,0.8619,0.8554,0.8524,0.8477,0.8493,0.8444,0.8408,0.8403,0.8339,0.8313,0.8266,0.8197,0.8165,0.8174,0.806,0.8093,0.8089,0.8084,0.8042,0.8032,0.8024,0.8136,0.8137,0.8137,0,0,0.862,0.8592,0.8543,0.8512,0.8466,0.8445,0.8433,0.8386,0.8369,0.8305,0.8299,0.8256,0.8175,0.814,0.8112,0.804,0.8036,0.8025,0.7994,0.7952,0.7944,0.7937,0.7908,0.7898,0.8019,0.8019,0.8019,0,0.8603,0.8534,0.8517,0.8467,0.8437,0.8432,0.838,0.835,0.8291,0.8269,0.8282,0.8177,0.8146,0.8066,0.8049,0.8027,0.801,0.803,0.7947,0.794,0.7933,0.7904,0.7894,0.8017,0.8018,0.8018,0.8018,0,0.8513,0.8465,0.843,0.8373,0.834,0.829,0.8263,0.8231,0.8222,0.82,0.8133,0.8094,0.8039,0.802,0.8011,0.7938,0.7945,0.7953,0.7973,0.7922,0.7895,0.7884,0.8016,0.8016,0.8016,0.8017,0,0,0.8448,0.8383,0.837,0.8342,0.8291,0.8252,0.8201,0.8147,0.8119,0.8078,0.8031,0.7962,0.7968,0.7936,0.7923,0.7887,0.7828,0.7898,0.7897,0.7883,0.7741,0.7733,0.7721,0.7827,0.7824,0.7823,0.7744,0,0.8382,0.829,0.8273,0.8192,0.8146,0.814,0.8094,0.8056,0.8034,0.7989,0.7964,0.7914,0.7928,0.7908,0.7872,0.7843,0.7798,0.7849,0.7779,0.7777,0.7788,0.7707,0.7699,0.7626,0.7733,0.7732,0.773,0,0.8292,0.8249,0.8164,0.8116,0.8096,0.8055,0.8003,0.7963,0.7918,0.7904,0.7868,0.7859,0.7802,0.7827,0.7747,0.7781,0.7752,0.7733,0.773,0.7719,0.7748,0.7691,0.7603,0.759,0.7714,0.7715,0.7717,0,0.8248,0.817,0.8108,0.8085,0.8029,0.8,0.7975,0.7933,0.7901,0.7855,0.7834,0.7782,0.7753,0.7712,0.7688,0.771,0.7607,0.7632,0.7591,0.7591,0.7567,0.7568,0.7469,0.7555,0.7555,0.7555,0.7555,0,0.8174,0.8121,0.8087,0.8049,0.7988,0.7968,0.7909,0.7884,0.7846,0.78,0.7793,0.775,0.7723,0.7675,0.7656,0.759,0.7578,0.7562,0.7557,0.7561,0.7562,0.7538,0.7541,0.7552,0.7553,0.7553,0.7554,0,0.8114,0.809,0.8021,0.7974,0.7961,0.7918,0.7876,0.7837,0.7815,0.7757,0.7742,0.7706,0.765,0.7623,0.7553,0.754,0.7463,0.7464,0.7478,0.7475,0.7434,0.7437,0.7314,0.7295,0.7397,0.7396,0.7395,0,0.8067,0.8026,0.7974,0.7943,0.7918,0.7869,0.7836,0.7815,0.7781,0.7727,0.7693,0.7637,0.759,0.75,0.7466,0.7412,0.7408,0.7368,0.7399,0.7403,0.7402,0.7403,0.7397,0.7362,0.7361,0.736,0.7359,0,0.7983,0.7973,0.7927,0.7876,0.7838,0.7796,0.7755,0.7731,0.7702,0.7664,0.7606,0.757,0.7499,0.7441,0.7384,0.7356,0.7351,0.735,0.7337,0.7338,0.7347,0.7337,0.7459,0.7352,0.7353,0.7353,0.7354,0.7354,0.7925,0.7887,0.7844,0.7792,0.776,0.7721,0.7682,0.7654,0.7607,0.7547,0.7537,0.7475,0.7429,0.7353,0.7323,0.7272,0.7281,0.7263,0.7257,0.7252,0.7248,0.7358,0.7262,0.7262,0.7262,0.7263,0.7263,0,0.7838,0.781,0.7763,0.7706,0.7664,0.7666,0.7621,0.7585,0.7531,0.749,0.7444,0.7376,0.732,0.7282,0.7225,0.7191,0.7187,0.7177,0.7177,0.7169,0.7246,0.7261,0.718,0.718,0.718,0.718,0.7181,0.7181,0.7788,0.7723,0.7707,0.7624,0.7596,0.7536,0.7509,0.7472,0.7439,0.7364,0.7318,0.7294,0.7253,0.7192,0.714,0.713,0.7107,0.7096,0.7085,0.7156,0.7165,0.7173,0.7187,0.7092,0.7092,0.7013,0.7012,0.7011]},{"header":{"parameterUnit":"m.s-1","parameterCategory":1,"la1":30.2991,"la2":30.254,"lo1":-89.0895,"lo2":-89.0444,"dy":0.0017,"dx":0.0017,"nx":28,"ny":28,"refTime":"2023-10-16T09:00:00:Z","depth":0,"parameterNumber":3,"parameterNumberName":"V-component_of_WINDS"},"data":[0,0,0,0,0,0,0,0,0,0,0,0,0,0,0,0,0,0,0,0,0,0,0,0,0,0,0,0,0,0,0,0,0,0,0,0,0,0,0,0,0,0,0,0,0,0,0,0,0,0,0,0,0,0,0,0,0,0,-4.2161,-4.2162,0,-4.2301,-4.2302,-4.2304,-4.2254,-4.2251,-4.2248,-4.2245,-4.2386,-4.2392,-4.2399,0,0,0,0,0,0,0,0,0,0,0,0,0,-4.1846,-4.1853,-4.216,-4.2162,-4.2164,-4.23,-4.2302,-4.2304,-4.2255,-4.2251,-4.2247,-4.2243,-4.2384,-4.2391,-4.2399,0,0,0,0,0,0,0,0,0,0,0,0,0,-4.1984,-4.1855,-4.216,-4.2156,-4.2157,-4.23,-4.2302,-4.2305,-4.2255,-4.2251,-4.2246,-4.2242,-4.2381,-4.2391,-4.24,-4.2556,0,0,-4.2431,-4.2435,0,0,0,0,0,0,0,0,-4.1977,-4.1996,-4.2155,-4.2156,-4.2158,-4.2255,-4.2243,-4.2389,-4.2257,-4.2218,-4.2245,-4.2239,-4.2346,-4.2358,-4.2395,-4.2562,-4.2568,-4.2432,-4.2438,-4.2442,-4.2445,0,0,0,0,0,0,0,-4.1967,-4.199,-4.2216,-4.2157,-4.2159,-4.2146,-4.216,-4.2271,-4.2306,-4.2221,-4.2218,-4.2235,-4.2346,-4.2385,-4.2398,-4.2571,-4.2432,-4.2441,-4.2447,-4.2451,-4.2871,-4.2876,0,0,0,0,0,0,-4.1957,-4.1982,-4.2211,-4.222,-4.2054,-4.2155,-4.2171,-4.2229,-4.2305,-4.2312,-4.2239,-4.2232,-4.2371,-4.2386,-4.2403,-4.2589,-4.2442,-4.2452,-4.2457,-4.2866,-4.2873,-4.2878,0,0,0,0,0,0,-4.1951,-4.1978,-4.2206,-4.21,-4.2128,-4.2165,-4.223,-4.2234,-4.2273,-4.2319,-4.2324,-4.2273,-4.2368,-4.2389,-4.2518,-4.2593,-4.2456,-4.2465,-4.286,-4.2868,-4.2875,-4.2964,0,0,0,0,0,0,-4.1942,-4.1976,-4.2036,-4.2102,-4.2134,-4.232,-4.2235,-4.224,-4.2291,-4.2284,-4.2352,-4.2359,-4.2366,-4.2503,-4.2528,-4.2605,-4.2473,-4.2854,-4.2864,-4.2873,-4.2954,-4.2974,-4.299,0,0,0,0,0,-4.1931,-4.2055,-4.204,-4.2068,-4.221,-4.2325,-4.2343,-4.2349,-4.2297,-4.2358,-4.2387,-4.2357,-4.2581,-4.2517,-4.2544,-4.2625,-4.2849,-4.2861,-4.2872,-4.2946,-4.297,-4.299,0,0,0,0,0,0,-4.1997,-4.2064,-4.2047,-4.2197,-4.2256,-4.2316,-4.2392,-4.2373,-4.2447,-4.2437,-4.244,-4.2456,-4.2589,-4.262,-4.2547,-4.2779,-4.2707,-4.2725,-4.2754,-4.2777,-4.2795,-4.2784,-4.2481,0,0,0,0,0,-4.2029,-4.2117,-4.2171,-4.2297,-4.2328,-4.2355,-4.2405,-4.2404,-4.2465,-4.2489,-4.2527,-4.2587,-4.267,-4.2725,-4.2804,-4.2958,-4.2972,-4.3027,-4.3045,-4.3059,-4.3075,-4.3158,-4.3183,-4.2917,-4.2916,-4.2916,0,0,-4.2096,-4.2144,-4.2199,-4.2312,-4.2357,-4.2447,-4.2376,-4.2475,-4.2542,-4.2504,-4.2629,-4.2659,-4.2725,-4.2867,-4.2931,-4.2897,-4.3151,-4.3074,-4.3086,-4.3093,-4.3172,-4.3197,-4.322,-4.2924,-4.2923,-4.2922,0,0,-4.2265,-4.231,-4.242,-4.2467,-4.2537,-4.2554,-4.258,-4.2644,-4.2663,-4.2788,-4.2762,-4.284,-4.2984,-4.3032,-4.3075,-4.3261,-4.3236,-4.3287,-4.338,-4.3461,-4.3482,-4.3501,-4.3567,-4.359,-4.3302,-4.3302,-4.3302,0,-4.2339,-4.2475,-4.2479,-4.258,-4.263,-4.26,-4.2712,-4.2756,-4.2848,-4.2883,-4.2843,-4.3023,-4.3065,-4.3218,-4.3263,-4.3299,-4.3329,-4.3279,-4.3479,-4.3498,-4.3515,-4.3578,-4.3603,-4.3308,-4.3307,-4.3306,-4.3306,0,-4.2563,-4.2657,-4.2738,-4.2828,-4.2887,-4.2993,-4.3012,-4.307,-4.3064,-4.3085,-4.3213,-4.3263,-4.3351,-4.3387,-4.3382,-4.3539,-4.3516,-4.3478,-4.3405,-4.3546,-4.3605,-4.3629,-4.3316,-4.3314,-4.3312,-4.3311,0,0,-4.2778,-4.2868,-4.2898,-4.2938,-4.3012,-4.3085,-4.3188,-4.3276,-4.3326,-4.339,-4.3477,-4.3599,-4.3564,-4.3613,-4.3613,-4.3684,-4.3827,-4.3636,-4.3638,-4.367,-4.4003,-4.4031,-4.4059,-4.3811,-4.3815,-4.3819,-4.3997,0,-4.2952,-4.3135,-4.3141,-4.3308,-4.3395,-4.3368,-4.3458,-4.3512,-4.3535,-4.3611,-4.3634,-4.3721,-4.3669,-4.3698,-4.3767,-4.3795,-4.3894,-4.3782,-4.389,-4.3894,-4.3875,-4.409,-4.4121,-4.4286,-4.402,-4.4024,-4.4027,0,-4.318,-4.3252,-4.3428,-4.3489,-4.3526,-4.3607,-4.3687,-4.376,-4.3821,-4.3832,-4.3887,-4.3876,-4.398,-4.3905,-4.4048,-4.3973,-4.4017,-4.4037,-4.4044,-4.4054,-4.3969,-4.4106,-4.4339,-4.4364,-4.4063,-4.406,-4.4058,0,-4.3319,-4.346,-4.3583,-4.3618,-4.3693,-4.375,-4.3784,-4.384,-4.3892,-4.3961,-4.3995,-4.4076,-4.412,-4.4182,-4.4193,-4.4137,-4.4337,-4.4262,-4.4348,-4.4348,-4.4392,-4.4389,-4.4636,-4.4421,-4.442,-4.442,-4.4419,0,-4.3514,-4.3622,-4.3646,-4.3722,-4.3843,-4.3848,-4.3966,-4.3995,-4.4046,-4.4126,-4.4106,-4.4181,-4.4191,-4.4268,-4.4277,-4.4395,-4.4415,-4.4426,-4.4427,-4.4428,-4.4427,-4.4457,-4.4446,-4.4426,-4.4425,-4.4424,-4.4422,0,-4.369,-4.3711,-4.3843,-4.3902,-4.392,-4.4006,-4.4056,-4.4128,-4.4148,-4.4249,-4.4273,-4.4304,-4.4395,-4.4411,-4.4517,-4.4523,-4.4663,-4.4653,-4.4643,-4.4642,-4.4727,-4.4719,-4.5002,-4.504,-4.48,-4.4802,-4.4804,0,-4.3813,-4.3896,-4.3964,-4.4017,-4.4053,-4.4138,-4.4191,-4.4199,-4.4254,-4.4329,-4.4392,-4.448,-4.4552,-4.4697,-4.4728,-4.4809,-4.48,-4.4894,-4.4812,-4.481,-4.4802,-4.4797,-4.4805,-4.491,-4.4912,-4.4914,-4.4916,0,-4.4029,-4.4035,-4.4112,-4.4194,-4.4257,-4.4321,-4.4382,-4.4426,-4.4441,-4.4505,-4.4597,-4.4652,-4.4761,-4.4848,-4.4929,-4.4962,-4.4942,-4.4941,-4.4966,-4.4968,-4.4959,-4.4965,-4.4686,-4.4935,-4.4933,-4.4932,-4.4931,-4.493,-4.4182,-4.4254,-4.4314,-4.44,-4.4447,-4.4504,-4.4574,-4.4603,-4.468,-4.477,-4.4769,-4.487,-4.4927,-4.5033,-4.5072,-4.515,-4.512,-4.5155,-4.5164,-4.5173,-4.5181,-4.4946,-4.5165,-4.5164,-4.5164,-4.5163,-4.5163,0,-4.4397,-4.4434,-4.4513,-4.4599,-4.4667,-4.4642,-4.4708,-4.4766,-4.4856,-4.4911,-4.4981,-4.5087,-4.5172,-4.5209,-4.5293,-4.5348,-4.5341,-4.537,-4.5366,-4.5374,-4.5203,-4.5174,-4.5374,-4.5374,-4.5374,-4.5374,-4.5374,-4.5374,-4.4517,-4.4638,-4.4651,-4.4794,-4.4829,-4.4928,-4.4968,-4.502,-4.5064,-4.5183,-4.5254,-4.5278,-4.5326,-4.5413,-4.5489,-4.5497,-4.5529,-4.5562,-4.5567,-4.5407,-4.5386,-4.5365,-4.5338,-4.5569,-4.5569,-4.5731,-4.5732,-4.5733]}]]